Regional Weather Roundup
Issued by NWS Jackson, KY

Home | Current Version | Previous Version | Text Only | Print | Product List | Glossary Off
Versions: 1 2 3 4 5 6 7 8 9 10 11 12 13 14 15 16 17 18 19 20 21 22 23 24 25 26 27 28

000
ASUS43 KJKL 160310
RWRJKL

EAST KENTUCKY HOURLY WEATHER ROUNDUP
NATIONAL WEATHER SERVICE JACKSON KY
1100 PM EDT SUN OCT 15 2017

NOTE: "FAIR" INDICATES FEW OR NO CLOUDS BELOW 12,000 FEET WITH
NO SIGNIFICANT WEATHER AND/OR OBSTRUCTIONS TO VISIBILITY.

* THESE REPORTS ARE NOT UNDER NWS QUALITY CONTROL AND MAY NOT
  REPORT WEATHER SUCH AS PRECIPITATION AND FOG.

KYZ079-080-083-085-087-088-110-112-115-119-120-160400
...EASTERN KENTUCKY...

CITY           SKY/WX    TMP DP  RH WIND       PRES   REMARKS
JACKSON        LGT RAIN  53  51  93 MISG      30.16R FOG
LONDON         CLOUDY    56  51  84 NW10      30.18R
SOMERSET*      CLOUDY    52  45  76 N13G21    30.22R
MONTICELLO*    CLOUDY    53  48  83 N23G29    30.23R
WILLIAMSBURG*  CLOUDY    54  54 100 NW7       30.18R
MIDDLESBORO*   CLOUDY    61  58  90 N5        30.14R
HARLAN APT*    CLOUDY    59  55  88 SW5       30.15R
PIKE CO APT*   DRIZZLE   57  57 100 NW10G17   30.13R
BIG SANDY APT* DRIZZLE   56  55  97 NW9G17    30.14R
MOREHEAD APT*  CLOUDY    54  45  71 NW7G14    30.19R
$$

KYZ035-036-041-042-044-050-067-078-099-160400
...CENTRAL KENTUCKY...

CITY           SKY/WX    TMP DP  RH WIND       PRES   REMARKS
MT STERLING*   CLOUDY    52  43  71 N8G18     30.21R
FLEMING/MASON* CLOUDY    53  43  68 NW7       30.19R
DANVILLE*      CLOUDY    52  45  76 N8        30.23R
LEXINGTON      CLOUDY    53  43  68 NW10      30.21R
FRANKFORT      CLOUDY    54  41  61 N12G22    30.21R
LOUISVILLE     CLOUDY    56  42  59 N14       30.23R
LEBANON*       CLOUDY    54  41  62 N12       30.23R
GLASGOW*       CLOUDY    54  44  68 N6G17     30.23R
BOWLING GREEN  CLOUDY    56  47  71 VRB5      30.24R
$$

KYZ091>093-OHZ055-061-077-WVZ005-015-034-035-042-160400
...SOUTHERN OHIO/WEST VIRGINIA...

CITY           SKY/WX    TMP DP  RH WIND       PRES   REMARKS
COVINGTON      CLOUDY    53  45  74 NW10      30.19R
COLUMBUS       MOCLDY    54  48  80 NW14      30.11R
DAYTON         MOCLDY    51  48  89 NW14      30.17R
WILMINGTON     CLOUDY    53  46  77 NW8       30.15R
HUNTINGTON     CLOUDY    55  43  63 NW12G23   30.15R
CHARLESTON     CLOUDY    57  52  83 NW10G17   30.11R
PINEVILLE*     LGT RAIN  61  58  89 MISG      30.12R
BECKLEY        RAIN      58  56  93 N12       30.08R FOG
BLUEFIELD      LGT RAIN  62  61  96 VRB7      30.08R FOG
LOGAN CO APT*  LGT RAIN  57  55  94 N9G20     30.10R
$$

VAZ002-007-008-TNZ017-027-036-066-071-160400
...SOUTHWEST VIRGINIA/EAST TENNESSEE...

CITY           SKY/WX    TMP DP  RH WIND       PRES   REMARKS
WISE*          RAIN      59  59 100 NW9       30.14R
JONESVILLE*    LGT RAIN  61  59  94 NW7       30.14R
ABINGDON*      LGT RAIN  71  64  80 NW13G18   30.07R
BRISTOL        LGT RAIN  68  67  96 W15G24    30.06R
MORRISTOWN*    CLOUDY    64  63  94 CALM      30.10R FOG
SEVIERVILLE*   CLOUDY    66  66 100 NW3       30.09R FOG
KNOXVILLE      LGT RAIN  66  66 100 N7        30.09S
LAFOLLETTE*    CLOUDY    63  57  82 CALM      30.17S
OAK RIDGE      CLOUDY    64  61  90 VRB5      30.12R
CROSSVILLE     CLOUDY    56  53  90 N8        30.17R
NASHVILLE      PTCLDY    54  48  80 N8        30.24R
$$

...KEY TO REMARKS...
VSB - VISIBILITY IN MILES
WCI - WIND CHILL INDEX
HX  - HEAT INDEX

$$




USA.gov is the U.S. government's official web portal to all federal, state and local government web resources and services.